BHS207 MYNN-KFLL

Flight info

Callsign BHS207
Flight time 0h 44m
Altitude 22000
Route PEACH OLAHS3
Aircraft B737/M-SDE2E3FGHIRWXY/LB1

Departure

Time 2026-05-04 00:42
Airport Lynden Pindling International Airport (MYNN)

Arrival

Time 2026-05-04 01:26
Airport Fort Lauderdale Hollywood International Airport (KFLL)
Time Latitude Longitude Altitude Speed Heading
2026-05-04 00:24 25.04898 -77.46777 16 ft 0 kts 146°
2026-05-04 00:32 25.04902 -77.46780 16 ft 2 kts 146°
2026-05-04 00:33 25.04918 -77.46792 18 ft 3 kts 146°
2026-05-04 00:33 25.04949 -77.46819 17 ft 3 kts 120°
2026-05-04 00:33 25.04954 -77.46836 17 ft 2 kts 67°
2026-05-04 00:34 25.04947 -77.46853 16 ft 3 kts 66°
2026-05-04 00:34 25.04938 -77.46873 18 ft 3 kts 66°
2026-05-04 00:34 25.04932 -77.46890 16 ft 3 kts 78°
2026-05-04 00:34 25.04933 -77.46910 16 ft 3 kts 118°
2026-05-04 00:35 25.04943 -77.46925 18 ft 2 kts 134°
2026-05-04 00:35 25.04956 -77.46940 18 ft 3 kts 134°
2026-05-04 00:35 25.04970 -77.46956 16 ft 3 kts 134°
2026-05-04 00:35 25.04981 -77.46968 16 ft 1 kts 134°
2026-05-04 00:36 25.04981 -77.46969 16 ft 1 kts 134°
2026-05-04 00:38 25.04979 -77.46966 16 ft 2 kts 134°
2026-05-04 00:38 25.04955 -77.46940 17 ft 7 kts 140°
2026-05-04 00:38 25.04910 -77.46941 16 ft 7 kts 210°
2026-05-04 00:39 25.04893 -77.46989 17 ft 7 kts 284°
2026-05-04 00:39 25.04924 -77.47031 17 ft 7 kts 317°
2026-05-04 00:39 25.04968 -77.47076 17 ft 9 kts 315°
2026-05-04 00:39 25.05016 -77.47128 19 ft 10 kts 314°
2026-05-04 00:40 25.05069 -77.47188 17 ft 11 kts 314°
2026-05-04 00:40 25.05121 -77.47249 17 ft 11 kts 314°
2026-05-04 00:40 25.05174 -77.47309 18 ft 12 kts 313°
2026-05-04 00:40 25.05221 -77.47382 17 ft 11 kts 288°
2026-05-04 00:41 25.05213 -77.47449 18 ft 9 kts 249°
2026-05-04 00:41 25.05184 -77.47506 20 ft 8 kts 228°
2026-05-04 00:41 25.05150 -77.47523 20 ft 8 kts 176°
2026-05-04 00:41 25.05092 -77.47469 20 ft 24 kts 133°
2026-05-04 00:42 25.04794 -77.47134 19 ft 97 kts 134°
2026-05-04 00:42 25.04168 -77.46433 18 ft 157 kts 132°
2026-05-04 00:42 25.03345 -77.45513 456 ft 174 kts 136°
2026-05-04 00:42 25.02473 -77.44609 1302 ft 168 kts 135°
2026-05-04 00:43 25.01621 -77.43722 2006 ft 173 kts 134°
2026-05-04 00:43 25.00862 -77.42593 2361 ft 196 kts 113°
2026-05-04 00:43 25.00590 -77.41044 2612 ft 221 kts 83°
2026-05-04 00:43 25.01186 -77.39404 2818 ft 246 kts 50°
2026-05-04 00:44 25.02637 -77.38315 3251 ft 262 kts 16°
2026-05-04 00:44 25.04459 -77.38248 3942 ft 267 kts 343°
2026-05-04 00:44 25.06088 -77.39209 4757 ft 267 kts 321°
2026-05-04 00:44 25.07488 -77.40574 5511 ft 272 kts 315°
2026-05-04 00:45 25.08850 -77.42040 6367 ft 273 kts 314°
2026-05-04 00:45 25.10215 -77.43519 7154 ft 277 kts 314°
2026-05-04 00:45 25.11592 -77.44993 8003 ft 279 kts 314°
2026-05-04 00:45 25.13004 -77.46485 8904 ft 282 kts 314°
2026-05-04 00:46 25.14435 -77.47980 9819 ft 285 kts 314°
2026-05-04 00:46 25.15899 -77.49499 10508 ft 296 kts 314°
2026-05-04 00:46 25.17469 -77.51123 10756 ft 322 kts 314°
2026-05-04 00:46 25.19169 -77.52875 11021 ft 344 kts 314°
2026-05-04 00:47 25.20957 -77.54710 11551 ft 356 kts 314°
2026-05-04 00:47 25.22789 -77.56584 12237 ft 361 kts 314°
2026-05-04 00:47 25.24637 -77.58472 13039 ft 363 kts 314°
2026-05-04 00:47 25.26500 -77.60378 13834 ft 366 kts 314°
2026-05-04 00:48 25.28382 -77.62303 14524 ft 369 kts 313°
2026-05-04 00:48 25.30249 -77.64215 15227 ft 372 kts 313°
2026-05-04 00:48 25.32155 -77.66168 15939 ft 375 kts 313°
2026-05-04 00:48 25.34082 -77.68144 16637 ft 379 kts 313°
2026-05-04 00:49 25.36017 -77.70129 17330 ft 382 kts 312°
2026-05-04 00:49 25.37975 -77.72138 18012 ft 385 kts 312°
2026-05-04 00:49 25.39943 -77.74160 18599 ft 389 kts 312°
2026-05-04 00:49 25.41891 -77.76257 19155 ft 388 kts 304°
2026-05-04 00:50 25.43292 -77.78765 19726 ft 381 kts 288°
2026-05-04 00:50 25.44061 -77.81553 20353 ft 378 kts 281°
2026-05-04 00:50 25.44675 -77.84386 20943 ft 380 kts 279°
2026-05-04 00:50 25.45263 -77.87246 21531 ft 381 kts 279°
2026-05-04 00:51 25.45853 -77.90116 21993 ft 384 kts 279°
2026-05-04 00:51 25.46454 -77.92993 22014 ft 386 kts 280°
2026-05-04 00:51 25.47074 -77.95902 22021 ft 388 kts 280°
2026-05-04 00:51 25.47690 -77.98759 22028 ft 387 kts 280°
2026-05-04 00:52 25.48317 -78.01651 22031 ft 386 kts 280°
2026-05-04 00:52 25.48949 -78.04558 22031 ft 386 kts 280°
2026-05-04 00:52 25.49577 -78.07445 22030 ft 386 kts 280°
2026-05-04 00:52 25.50206 -78.10342 22033 ft 386 kts 280°
2026-05-04 00:53 25.50832 -78.13234 22027 ft 386 kts 280°
2026-05-04 00:53 25.51458 -78.16124 22034 ft 386 kts 280°
2026-05-04 00:53 25.52084 -78.19018 22025 ft 386 kts 280°
2026-05-04 00:53 25.52709 -78.21910 22036 ft 386 kts 280°
2026-05-04 00:54 25.53333 -78.24800 22025 ft 386 kts 280°
2026-05-04 00:54 25.53961 -78.27689 22029 ft 386 kts 280°
2026-05-04 00:54 25.54594 -78.30581 22027 ft 386 kts 280°
2026-05-04 00:54 25.55226 -78.33468 22029 ft 385 kts 280°
2026-05-04 00:55 25.55855 -78.36348 22030 ft 385 kts 280°
2026-05-04 00:55 25.56485 -78.39237 22027 ft 385 kts 280°
2026-05-04 00:55 25.57115 -78.42126 22029 ft 385 kts 280°
2026-05-04 00:55 25.57742 -78.45011 22029 ft 385 kts 280°
2026-05-04 00:56 25.58368 -78.47894 22026 ft 385 kts 280°
2026-05-04 00:56 25.58988 -78.50749 22025 ft 385 kts 280°
2026-05-04 00:56 25.59614 -78.53638 22028 ft 385 kts 280°
2026-05-04 00:56 25.60239 -78.56520 22031 ft 385 kts 280°
2026-05-04 00:57 25.60865 -78.59413 22027 ft 385 kts 280°
2026-05-04 00:57 25.61488 -78.62300 22029 ft 385 kts 280°
2026-05-04 00:57 25.62113 -78.65191 22023 ft 385 kts 280°
2026-05-04 00:57 25.62734 -78.68070 22020 ft 381 kts 280°
2026-05-04 00:58 25.63339 -78.70866 22013 ft 364 kts 280°
2026-05-04 00:58 25.63917 -78.73538 22008 ft 349 kts 279°
2026-05-04 00:58 25.64464 -78.76078 22015 ft 340 kts 279°
2026-05-04 00:58 25.65011 -78.78636 22005 ft 341 kts 279°
2026-05-04 00:59 25.65561 -78.81211 21645 ft 343 kts 279°
2026-05-04 00:59 25.66112 -78.83781 21173 ft 344 kts 279°
2026-05-04 00:59 25.66662 -78.86347 20699 ft 340 kts 279°
2026-05-04 00:59 25.67208 -78.88893 20210 ft 337 kts 279°
2026-05-04 01:00 25.67746 -78.91410 19713 ft 335 kts 279°
2026-05-04 01:00 25.68284 -78.93925 19203 ft 334 kts 279°
2026-05-04 01:00 25.68819 -78.96433 18692 ft 333 kts 280°
2026-05-04 01:00 25.69351 -78.98929 18174 ft 333 kts 280°
2026-05-04 01:01 25.69883 -79.01424 17627 ft 331 kts 280°
2026-05-04 01:01 25.70411 -79.03902 17104 ft 329 kts 280°
2026-05-04 01:01 25.70935 -79.06365 16597 ft 327 kts 280°
2026-05-04 01:01 25.71458 -79.08821 16092 ft 326 kts 280°
2026-05-04 01:02 25.71976 -79.11259 15603 ft 324 kts 280°
2026-05-04 01:02 25.72484 -79.13654 15122 ft 322 kts 280°
2026-05-04 01:02 25.72997 -79.16075 14616 ft 322 kts 280°
2026-05-04 01:02 25.73508 -79.18488 14124 ft 321 kts 280°
2026-05-04 01:03 25.74017 -79.20893 13604 ft 320 kts 281°
2026-05-04 01:03 25.74524 -79.23291 13082 ft 318 kts 281°
2026-05-04 01:03 25.75028 -79.25674 12599 ft 316 kts 281°
2026-05-04 01:03 25.75529 -79.28045 12104 ft 314 kts 281°
2026-05-04 01:04 25.76070 -79.30394 11529 ft 316 kts 283°
2026-05-04 01:04 25.76686 -79.32737 11029 ft 314 kts 284°
2026-05-04 01:04 25.77315 -79.35055 10549 ft 313 kts 284°
2026-05-04 01:04 25.77934 -79.37332 10340 ft 302 kts 284°
2026-05-04 01:05 25.78525 -79.39526 10174 ft 291 kts 284°
2026-05-04 01:05 25.79090 -79.41633 10034 ft 279 kts 284°
2026-05-04 01:05 25.79629 -79.43659 9936 ft 266 kts 284°
2026-05-04 01:05 25.80156 -79.45652 9428 ft 270 kts 284°
2026-05-04 01:06 25.80677 -79.47625 9048 ft 269 kts 284°
2026-05-04 01:06 25.81201 -79.49613 8685 ft 267 kts 284°
2026-05-04 01:06 25.81720 -79.51583 8317 ft 266 kts 284°
2026-05-04 01:06 25.82237 -79.53543 7990 ft 264 kts 284°
2026-05-04 01:07 25.82750 -79.55491 7643 ft 262 kts 284°
2026-05-04 01:07 25.83261 -79.57431 7296 ft 260 kts 284°
2026-05-04 01:07 25.83768 -79.59358 6962 ft 259 kts 284°
2026-05-04 01:07 25.84357 -79.61246 6621 ft 259 kts 290°
2026-05-04 01:08 25.85057 -79.63090 6273 ft 259 kts 291°
2026-05-04 01:08 25.85778 -79.64909 6036 ft 256 kts 293°
2026-05-04 01:08 25.86550 -79.66679 6006 ft 253 kts 294°
2026-05-04 01:08 25.87321 -79.68436 6010 ft 253 kts 294°
2026-05-04 01:09 25.88080 -79.70181 6008 ft 255 kts 293°
2026-05-04 01:09 25.88849 -79.71961 6003 ft 256 kts 293°
2026-05-04 01:09 25.89616 -79.73742 5998 ft 255 kts 293°
2026-05-04 01:09 25.90384 -79.75539 6000 ft 255 kts 293°
2026-05-04 01:10 25.91144 -79.77321 5999 ft 254 kts 293°
2026-05-04 01:10 25.91892 -79.79076 6001 ft 254 kts 293°
2026-05-04 01:10 25.92647 -79.80848 5998 ft 254 kts 293°
2026-05-04 01:10 25.93403 -79.82624 5999 ft 253 kts 293°
2026-05-04 01:11 25.94157 -79.84396 6002 ft 253 kts 293°
2026-05-04 01:11 25.94913 -79.86172 6005 ft 253 kts 293°
2026-05-04 01:11 25.95663 -79.87934 6009 ft 253 kts 292°
2026-05-04 01:11 25.96414 -79.89700 6011 ft 252 kts 292°
2026-05-04 01:12 25.97162 -79.91458 6012 ft 252 kts 292°
2026-05-04 01:12 25.97899 -79.93193 6018 ft 252 kts 293°
2026-05-04 01:12 25.98667 -79.94980 6012 ft 253 kts 296°
2026-05-04 01:12 25.99698 -79.96575 6020 ft 256 kts 308°
2026-05-04 01:13 26.00892 -79.98043 6015 ft 256 kts 309°
2026-05-04 01:13 26.02096 -79.99475 6007 ft 257 kts 310°
2026-05-04 01:13 26.03314 -80.00930 6012 ft 257 kts 309°
2026-05-04 01:13 26.04528 -80.02397 6022 ft 257 kts 309°
2026-05-04 01:14 26.05732 -80.03863 6025 ft 257 kts 309°
2026-05-04 01:14 26.06942 -80.05346 6018 ft 258 kts 309°
2026-05-04 01:14 26.08150 -80.06831 6022 ft 258 kts 309°
2026-05-04 01:14 26.09352 -80.08313 6029 ft 258 kts 308°
2026-05-04 01:15 26.10558 -80.09804 6013 ft 259 kts 309°
2026-05-04 01:15 26.11744 -80.11271 6026 ft 259 kts 309°
2026-05-04 01:15 26.12947 -80.12760 6023 ft 259 kts 309°
2026-05-04 01:15 26.14146 -80.14254 6014 ft 258 kts 306°
2026-05-04 01:16 26.14930 -80.16011 6030 ft 252 kts 282°
2026-05-04 01:16 26.15087 -80.17950 6032 ft 250 kts 269°
2026-05-04 01:16 26.15089 -80.19871 6022 ft 242 kts 268°
2026-05-04 01:16 26.15080 -80.21692 5987 ft 229 kts 269°
2026-05-04 01:17 26.15074 -80.23442 5778 ft 224 kts 269°
2026-05-04 01:17 26.15072 -80.25156 5587 ft 219 kts 269°
2026-05-04 01:17 26.15075 -80.26837 5381 ft 216 kts 269°
2026-05-04 01:17 26.15079 -80.28480 5187 ft 215 kts 269°
2026-05-04 01:18 26.15084 -80.30144 5074 ft 217 kts 269°
2026-05-04 01:18 26.15089 -80.31941 5087 ft 243 kts 269°
2026-05-04 01:18 26.15096 -80.33863 5053 ft 251 kts 269°
2026-05-04 01:18 26.15084 -80.35816 5015 ft 252 kts 268°
2026-05-04 01:19 26.15041 -80.37757 5005 ft 251 kts 268°
2026-05-04 01:19 26.14991 -80.39726 4798 ft 257 kts 268°
2026-05-04 01:19 26.14867 -80.41693 4524 ft 254 kts 256°
2026-05-04 01:19 26.14134 -80.43441 4259 ft 249 kts 229°
2026-05-04 01:20 26.12675 -80.44412 4015 ft 248 kts 194°
2026-05-04 01:20 26.10990 -80.44707 3803 ft 244 kts 188°
2026-05-04 01:20 26.09326 -80.44479 3517 ft 245 kts 155°
2026-05-04 01:20 26.08117 -80.43192 3274 ft 244 kts 116°
2026-05-04 01:21 26.07780 -80.41371 3106 ft 238 kts 91°
2026-05-04 01:21 26.07800 -80.39575 3025 ft 227 kts 89°
2026-05-04 01:21 26.07824 -80.37895 3029 ft 211 kts 90°
2026-05-04 01:21 26.07823 -80.36325 3011 ft 194 kts 91°
2026-05-04 01:22 26.07815 -80.34910 2981 ft 172 kts 91°
2026-05-04 01:22 26.07805 -80.33568 2943 ft 172 kts 91°
2026-05-04 01:22 26.07796 -80.32268 2722 ft 164 kts 90°
2026-05-04 01:22 26.07787 -80.31046 2573 ft 150 kts 91°
2026-05-04 01:23 26.07779 -80.29859 2340 ft 153 kts 90°
2026-05-04 01:23 26.07771 -80.28695 2142 ft 148 kts 90°
2026-05-04 01:23 26.07763 -80.27568 1954 ft 144 kts 90°
2026-05-04 01:23 26.07756 -80.26467 1772 ft 144 kts 89°
2026-05-04 01:24 26.07748 -80.25348 1583 ft 144 kts 89°
2026-05-04 01:24 26.07741 -80.24234 1385 ft 144 kts 89°
2026-05-04 01:24 26.07734 -80.23119 1195 ft 144 kts 89°
2026-05-04 01:24 26.07727 -80.22007 1005 ft 143 kts 89°
2026-05-04 01:25 26.07721 -80.20902 826 ft 143 kts 88°
2026-05-04 01:25 26.07716 -80.20168 707 ft 143 kts 88°
2026-05-04 01:25 26.07707 -80.18681 412 ft 144 kts 89°
2026-05-04 01:25 26.07698 -80.17942 312 ft 144 kts 89°
2026-05-04 01:26 26.07696 -80.16461 27 ft 144 kts 88°
2026-05-04 01:26 26.07691 -80.15509 14 ft 93 kts 91°
2026-05-04 01:26 26.07685 -80.15129 14 ft 53 kts 91°
2026-05-04 01:26 26.07650 -80.14661 18 ft 38 kts 108°
2026-05-04 01:27 26.07582 -80.14494 16 ft 32 kts 114°
2026-05-04 01:27 26.07557 -80.14296 16 ft 23 kts 91°
2026-05-04 01:27 26.07557 -80.14125 16 ft 21 kts 91°
2026-05-04 01:27 26.07555 -80.13984 15 ft 16 kts 93°
2026-05-04 01:28 26.07540 -80.13895 16 ft 8 kts 122°
2026-05-04 01:28 26.07520 -80.13848 15 ft 5 kts 104°
2026-05-04 01:28 26.07518 -80.13812 15 ft 4 kts 90°
2026-05-04 01:28 26.07518 -80.13783 15 ft 3 kts 90°
2026-05-04 01:29 26.07518 -80.13766 15 ft 2 kts 90°
2026-05-04 01:29 26.07516 -80.13751 15 ft 2 kts 104°
2026-05-04 01:29 26.07509 -80.13738 15 ft 2 kts 129°
2026-05-04 01:29 26.07491 -80.13726 15 ft 4 kts 154°
2026-05-04 01:30 26.07466 -80.13707 15 ft 4 kts 137°
2026-05-04 01:30 26.07451 -80.13680 15 ft 4 kts 112°
2026-05-04 01:30 26.07439 -80.13653 15 ft 4 kts 131°
2026-05-04 01:30 26.07422 -80.13643 15 ft 1 kts 160°
2026-05-04 01:31 26.07420 -80.13642 15 ft 0 kts 162°